Location: Newark
(50.4348°N, 30.5552°E)
Time: 03:40:17
(UTC+00:00)

Altair - Pass Details

Date: 26 January 2020
Orbit: 1502 x 1682 km, 47.2° (Epoch: 16 February)

Event Time Altitude Azimuth Distance (km) Brightness Sun altitude
Rises 11:35:17 0° 285° (WNW) 4,939 10.2 18.3°
Reaches altitude 10° 11:38:34 10° 281° (W) 3,949 9.9 18.1°
Maximum altitude 11:48:14 52° 209° (SSW) 1,997 9.2 17.5°
Drops below altitude 10° 11:57:42 10° 137° (SE) 3,861 9.9 16.8°
Sets 12:00:53 0° 132° (SE) 4,823 10.3 16.6°
